Theta_e
333 332 332 330 330 330 330 331 331 331 331 332 333 333 334 334 333 333 333 332 333 332 333 334 334 333 333 333 333 333 332 332 332 332 331 331 331 331 332 331 331 331
333 332 332 331 331 330 330 331 332 332 332 332 333 333 333 333 333 333 333 333 333 332 333 334 333 333 333 333 333 332 332 332 332 331 331 330 331 331 331 331 331 330
332 332 332 332 331 331 331 332 332 332 332 332 333 332 333 332 332 332 333 333 333 332 333 333 332 333 333 332 333 332 331 331 331 331 330 330 331 332 332 331 330 330
333 333 332 332 332 332 332 332 332 332 333 333 333 332 332 331 332 332 332 332 332 331 332 331 331 331 331 331 331 330 329 329 329 330 330 331 332 332 332 331 331 331
333 332 332 332 332 332 332 332 332 332 332 333 333 332 332 331 331 332 331 331 330 330 330 329 329 329 329 329 328 327 328 329 329 330 331 332 332 332 332 331 331 331
331 331 331 332 332 332 332 332 332 332 332 333 332 332 331 331 331 331 330 329 329 329 329 328 327 328 328 327 327 327 328 329 330 331 332 332 331 331 331 330 331 331
329 330 330 331 331 332 332 331 331 331 332 332 332 332 331 330 331 331 329 328 327 328 327 326 326 327 328 327 327 328 328 329 330 331 331 330 330 330 329 329 330 330
329 329 330 331 331 331 331 331 331 331 331 331 331 331 331 328 329 330 328 327 327 327 326 325 325 326 327 327 327 328 328 329 330 330 329 328 329 329 329 329 329 328
329 329 330 330 331 331 331 331 331 330 330 331 331 330 329 327 327 328 327 327 327 326 325 325 325 325 325 326 327 327 328 328 328 327 327 327 328 328 329 329 328 327
329 329 329 330 330 331 331 331 331 330 330 331 330 328 327 327 327 327 327 326 325 325 325 325 325 325 325 325 326 326 325 326 325 325 325 326 326 327 329 328 328 327
328 328 328 328 328 328 329 329 328 329 330 330 329 328 327 327 327 327 326 325 324 324 324 325 325 325 325 325 325 324 323 323 323 322 323 324 324 325 328 328 328 328
328 328 328 328 327 326 326 326 326 327 328 328 327 328 327 326 326 326 325 324 324 324 324 324 325 325 325 324 323 323 322 321 320 319 320 322 322 323 326 328 328 328
327 327 328 328 328 327 327 327 327 327 326 325 325 326 326 326 325 325 324 324 324 323 323 323 324 324 323 321 320 320 320 319 318 318 319 320 322 323 326 327 328 329
326 327 328 327 327 327 327 327 326 326 326 324 324 325 326 325 324 323 324 324 324 322 322 322 322 322 321 320 318 318 319 319 319 319 320 322 323 325 326 327 327 327
326 326 327 327 327 326 326 326 324 325 325 324 323 325 325 323 322 323 324 324 323 322 322 322 321 321 321 320 320 318 319 320 320 320 321 324 325 326 325 325 325 324
326 326 326 326 327 326 325 325 324 325 325 324 324 325 324 321 322 324 324 324 323 323 322 322 321 321 321 320 319 318 319 321 321 321 322 324 325 324 323 322 321 320
326 325 325 327 327 325 324 325 325 325 324 324 324 324 322 321 322 323 323 323 323 322 322 322 321 321 319 318 318 318 319 321 322 322 323 324 324 322 320 319 319 319
325 325 325 326 326 325 324 324 324 324 323 323 323 323 322 321 321 321 322 322 322 322 322 322 321 319 317 317 319 319 319 320 321 322 323 322 321 320 320 319 320 320
323 325 325 325 325 324 324 324 323 322 322 323 322 322 321 320 319 320 320 320 320 320 321 320 319 318 318 319 321 321 320 320 321 321 321 321 320 320 320 320 320 320
320 322 323 323 323 323 322 322 321 321 321 321 321 320 319 318 317 318 318 318 319 320 320 320 320 320 320 321 321 322 322 321 321 321 321 320 320 319 319 319 320 320
318 319 320 321 321 321 321 320 320 320 318 318 318 318 318 317 316 317 317 318 318 319 320 321 322 322 321 321 322 322 322 321 321 320 319 318 318 318 318 319 319 320
317 318 318 319 319 320 320 319 318 318 316 314 314 315 315 316 316 316 316 316 316 317 319 319 320 321 320 319 320 320 321 320 318 317 316 316 318 319 318 319 319 319
316 317 317 317 318 318 317 317 316 315 314 312 310 311 312 313 314 315 315 315 315 316 316 316 316 317 318 317 316 316 317 316 315 315 315 316 319 320 319 319 319 319
316 317 316 316 316 315 315 315 314 313 312 312 311 311 311 311 312 314 314 315 315 315 315 315 315 316 318 317 316 316 316 316 315 315 315 316 318 319 319 319 319 318
316 317 317 316 315 315 314 315 315 314 313 312 312 311 311 311 312 313 313 314 314 314 315 315 315 316 317 317 317 316 317 316 316 316 317 317 317 317 317 316 316 316
316 316 316 316 316 315 315 314 315 315 314 313 312 311 311 311 312 312 312 312 313 313 314 315 315 316 317 318 318 317 316 317 317 317 317 316 314 314 313 312 312 312
Wind_Speed
23 22 21 21 21 20 19 19 18 17 18 18 17 16 15 14 14 14 15 16 17 17 17 18 18 17 16 15 15 15 15 15 15 15 14 15 16 15 16 16 15 15
24 22 20 19 21 21 20 19 17 17 17 16 15 15 13 12 13 14 15 16 17 18 17 17 17 17 16 16 16 16 15 15 15 15 15 15 15 14 14 14 13 13
25 24 22 20 22 22 20 17 16 17 16 14 14 14 13 14 15 14 15 16 17 17 18 17 16 16 16 16 16 15 14 14 14 15 15 15 14 14 13 12 11 12
26 25 23 23 23 23 21 19 18 18 17 15 15 16 15 16 17 16 16 17 17 17 17 16 15 15 15 14 14 13 12 13 13 14 14 14 14 13 12 12 12 11
26 25 24 23 23 22 21 20 19 19 19 17 16 17 18 19 19 18 17 17 16 16 16 16 14 14 15 15 14 13 13 12 12 13 13 13 12 11 11 12 12 12
23 23 23 23 22 22 21 20 20 20 19 18 17 18 19 20 20 19 18 17 16 16 17 16 15 15 17 17 15 14 13 13 13 13 12 11 11 11 11 11 12 12
19 20 21 22 22 21 21 20 20 20 20 20 20 21 20 19 19 20 19 18 18 17 17 16 15 16 17 17 15 14 13 13 13 12 11 10 10 11 11 11 12 12
16 17 18 19 21 20 20 20 21 21 21 21 23 23 21 18 19 20 21 21 19 18 17 16 15 15 16 16 15 14 13 13 13 12 12 11 10 10 10 10 11 11
12 15 17 18 19 19 18 19 21 21 21 23 25 24 22 20 20 21 21 20 18 17 16 15 15 15 15 15 15 15 14 14 13 12 11 11 11 10 10 10 10 10
8 11 15 16 17 18 18 19 21 23 22 24 25 24 23 23 21 20 19 17 16 16 16 16 17 15 15 16 16 15 14 13 12 11 11 11 10 10 10 10 10 10
4 8 12 12 12 12 13 16 18 21 23 24 24 24 23 23 22 20 17 15 16 16 16 17 17 16 16 16 14 12 11 11 11 10 10 10 10 9 8 9 9 9
5 8 12 12 11 8 8 10 13 16 20 22 23 24 23 23 21 19 17 17 17 16 15 17 17 17 16 14 13 11 11 11 11 10 10 11 11 9 8 9 9 9
5 6 10 13 13 12 12 13 15 17 19 19 21 24 23 21 20 19 19 19 18 16 16 17 18 17 15 13 11 10 10 10 10 11 12 11 11 10 9 8 10 10
3 5 10 13 13 14 16 18 18 20 21 20 20 22 21 19 19 20 21 20 18 17 17 17 17 16 15 13 11 9 9 9 11 13 13 11 10 9 8 8 9 10
3 7 11 13 14 16 18 20 21 22 23 21 21 21 19 18 19 21 21 20 19 18 17 17 16 15 15 14 11 10 9 9 13 15 14 12 11 10 10 12 12 12
5 9 13 14 17 18 18 20 22 21 22 21 21 21 21 20 20 20 20 19 18 18 17 17 16 15 15 15 12 11 10 10 14 18 16 13 14 15 16 16 16 16
9 12 15 15 18 19 17 17 20 20 19 20 21 22 21 20 21 20 19 18 18 18 17 16 16 15 15 15 13 12 13 13 16 18 17 16 17 18 18 18 17 16
11 14 15 16 19 20 18 18 20 19 18 19 20 21 19 18 20 20 19 18 18 17 16 15 15 14 14 14 14 15 15 16 17 18 19 20 20 19 18 16 15 12
10 13 14 15 18 19 20 20 19 18 19 20 20 20 20 19 20 20 20 19 18 17 15 14 14 14 15 16 18 19 18 18 19 20 21 21 19 17 15 12 10 7
9 11 12 13 15 15 15 17 16 16 20 22 21 21 21 21 21 21 21 20 19 18 17 17 18 17 18 19 20 20 20 20 21 21 20 18 15 12 10 8 7 5
13 12 12 13 15 15 15 14 15 17 19 21 23 24 24 23 24 23 23 22 22 22 22 21 21 21 21 21 21 21 21 22 21 19 16 14 11 9 7 7 6 5
16 15 14 15 16 16 17 17 18 20 20 20 23 25 26 26 26 24 24 24 24 24 26 25 24 23 23 22 22 22 22 21 18 15 13 12 12 11 9 9 8 6
18 18 18 18 19 19 20 21 20 22 23 22 23 27 27 27 27 26 24 23 22 22 22 23 21 21 21 20 18 18 19 18 15 14 13 11 10 11 11 10 9 7
18 18 19 21 21 21 23 25 24 24 25 25 26 28 28 27 28 27 24 21 20 18 17 16 15 14 14 16 14 12 14 15 14 14 15 13 11 12 12 11 10 8
16 16 17 19 20 19 21 26 28 27 26 25 26 28 27 26 26 26 25 21 18 15 13 13 12 10 9 10 11 10 10 12 13 15 17 17 15 14 12 11 10 8
16 16 15 16 17 16 18 22 25 26 25 25 25 26 26 25 23 23 23 22 18 15 13 13 13 11 9 8 9 10 8 9 12 15 17 18 16 15 14 12 11 10
Wind_Direction
231 234 239 240 237 233 225 220 216 207 201 200 202 206 204 202 201 199 202 205 204 201 197 194 193 191 190 190 193 197 201 205 206 206 207 208 210 213 214 216 223 226
227 230 233 236 237 235 229 225 220 214 209 205 201 202 206 209 208 204 205 203 199 197 196 195 194 192 192 194 196 199 203 204 204 205 204 204 205 207 210 214 220 222
221 222 223 228 233 231 226 222 216 213 212 204 193 193 200 203 199 199 202 199 194 193 195 194 193 194 195 196 198 201 203 201 201 201 200 202 204 203 206 210 212 214
216 217 217 221 225 225 222 215 207 205 206 200 190 188 191 191 189 192 193 190 187 187 189 188 188 191 192 194 197 198 197 194 194 196 197 199 203 203 206 211 211 212
217 216 214 215 218 220 218 212 204 199 198 198 193 189 186 183 184 187 185 184 186 186 185 183 184 189 188 189 191 193 194 192 190 192 195 196 199 206 211 212 211 212
219 215 213 213 215 217 215 211 205 197 193 194 193 189 185 183 182 182 181 182 184 184 181 180 183 187 188 190 194 199 200 198 195 195 197 199 201 206 211 211 210 210
221 215 213 213 213 214 214 210 204 198 192 191 189 184 183 188 188 182 179 177 175 175 176 177 181 184 187 194 200 205 204 200 198 193 192 195 196 198 201 205 208 210
223 216 212 212 211 211 212 208 202 199 194 190 186 178 176 188 191 182 179 178 175 175 176 178 181 181 185 196 202 201 196 192 189 184 183 186 189 192 192 194 203 204
228 219 212 212 212 211 211 207 201 198 194 189 184 175 169 180 188 183 180 183 183 183 184 182 181 180 184 192 194 188 182 181 181 181 187 192 192 192 189 188 194 193
237 220 212 214 216 215 212 204 198 194 192 188 182 173 169 178 188 187 185 189 191 190 189 184 180 180 181 183 183 182 181 183 185 192 200 202 196 191 188 184 184 184
243 204 206 216 221 217 207 195 190 189 189 187 180 173 173 181 189 191 190 193 191 186 184 183 182 182 181 182 184 187 190 193 197 203 205 204 203 200 195 187 182 182
241 202 201 210 213 207 195 189 190 190 189 188 180 173 175 184 189 191 191 189 184 178 177 180 182 183 183 185 190 194 200 207 211 210 206 208 211 209 203 194 187 184
253 212 200 205 204 196 190 192 195 195 192 191 185 176 177 185 189 189 188 183 177 173 172 173 176 180 182 183 186 192 200 207 207 202 202 207 207 201 197 193 186 182
249 205 198 201 196 185 182 184 189 192 190 190 189 181 179 186 189 185 181 178 176 173 170 169 172 177 181 182 184 186 186 189 189 188 190 190 187 184 181 175 170 166
219 191 189 189 183 177 177 181 184 185 183 186 190 185 182 186 186 182 179 178 177 175 170 170 173 177 181 186 192 186 181 187 186 181 178 174 164 152 147 145 142 138
209 193 187 184 179 174 172 179 182 179 180 189 193 187 185 187 186 185 185 182 179 177 174 174 178 181 185 191 193 186 180 177 171 169 169 164 151 140 135 133 130 125
204 197 190 184 180 177 179 185 186 185 189 193 191 187 187 189 191 191 191 187 182 179 178 180 184 188 190 189 185 181 178 168 160 160 160 155 146 140 134 129 124 118
189 193 192 184 179 181 189 189 185 188 194 191 185 185 188 189 190 191 189 186 183 180 179 182 186 188 187 180 171 170 170 164 160 158 153 146 140 136 132 126 117 111
159 177 185 182 179 184 191 190 182 180 184 183 177 178 180 180 179 179 177 177 177 176 173 171 172 173 171 165 160 159 158 155 153 150 142 135 130 126 123 119 110 101
108 141 157 164 168 172 180 184 178 167 167 170 170 168 166 164 163 162 160 160 162 162 157 152 152 153 155 157 156 154 152 148 143 138 130 125 120 115 113 113 109 101
84 105 123 136 144 150 155 158 157 153 150 152 156 157 155 151 149 148 147 144 143 144 142 138 135 137 142 148 152 150 147 143 139 135 130 126 122 119 121 127 124 113
81 94 105 113 122 133 138 135 136 141 139 133 134 138 140 139 137 135 134 133 132 133 134 131 128 129 132 136 142 146 146 143 138 131 126 126 129 134 141 144 138 135
76 87 94 99 104 111 118 120 122 127 131 127 120 120 121 121 122 120 118 118 119 120 123 125 126 130 133 135 138 145 148 147 141 132 127 130 139 143 147 149 148 155
73 83 88 91 93 97 107 117 119 118 122 124 119 115 112 110 111 112 109 106 104 103 106 111 114 123 137 143 145 149 151 149 147 144 143 149 155 149 146 151 155 160
71 81 88 90 92 93 100 110 115 116 119 120 115 111 109 105 104 105 103 101 99 99 102 105 107 116 137 150 154 162 164 159 157 154 149 150 153 147 141 144 146 145
72 78 84 90 97 103 104 108 114 118 119 117 114 113 113 111 108 106 104 103 104 107 109 108 111 118 130 144 153 158 163 167 168 161 152 147 146 142 138 136 132 129